Regional Weather Roundup
Issued by NWS Upton, NY

Current Version | Previous Version | Text Only | Print | Product List | Glossary On
Versions: 1 2 3 4 5 6 7 8 9 10 11 12 13 14 15 16 17 18 19 20 21 22 23 24 25 26 27 28 29 30 31 32 33 34 35 36 37 38 39 40 41 42 43 44 45 46 47 48 49 50
672
ASUS41 KOKX 161708
RWROKX

REGIONAL WEATHER ROUNDUP
NATIONAL WEATHER SERVICE NEW YORK NY
100 PM EDT MON OCT 16 2017

NOTE: "FAIR" INDICATES FEW OR NO CLOUDS BELOW 12,000 FEET WITH NO
SIGNIFICANT WEATHER AND/OR OBSTRUCTIONS TO VISIBILITY.

NYZ071-072-176-178-NJZ106-104-161800-
NEW YORK CITY METRO AREA

CITY           SKY/WX    TMP DP  RH WIND       PRES   REMARKS
Central Park   PTSUNNY   58  41  53 VRB5G20   30.03F
Bronx Bot Gard   N/A     57  39  51 W12       29.99F
LaGuardia APRT CLOUDY    58  43  57 NW18      29.99F
Kennedy INTL   CLOUDY    59  43  55 N16       30.00F
Breezy Point     N/A     55 N/A N/A NW13        N/A
Newark/Liberty CLOUDY    58  40  51 NW16G25   30.01F
Teterboro      CLOUDY    57  40  52 NW15G23   30.00F
$$

NYZ177-179-078>081-161800-
LONG ISLAND NEW YORK

CITY           SKY/WX    TMP DP  RH WIND       PRES   REMARKS
Jones Beach      N/A     55 N/A N/A N17         N/A
Matinecock PT    N/A     57 N/A N/A NW16G22     N/A
Farmingdale    CLOUDY    59  43  55 N10G18    29.99F
MacArthur/ISP  CLOUDY    59  46  62 NW13      29.98F
Shirley        CLOUDY    61  47  59 N16G23    29.98S
Mt Sinai Harb    N/A     57 N/A N/A N13G22      N/A
Westhampton    NOT AVBL
East Hampton   FAIR      54  44  67 NW9       29.96S
Montauk          N/A     58  46  64 NW12      29.98R
$$

NYZ052-065-067-161800-
HUDSON VALLEY

CITY           SKY/WX    TMP DP  RH WIND       PRES   REMARKS
White Plains   PTSUNNY   57  42  57 NW14      29.99F
Larchmont Harb   N/A     55 N/A N/A NW10        N/A
Croton On Huds   N/A     57 N/A N/A NW12G17     N/A
Newburgh       PTSUNNY   54  43  66 NW12G17   30.04S
Montgomery     CLOUDY    54  40  59 N15G23    30.03F
Poughkeepsie   CLOUDY    54  40  59 N10       30.02S
Albany         CLOUDY    51  37  58 W14       30.07R
$$

NJZ001-105-106-008-010-013-015-019>022-104-161800-
NEW JERSEY

CITY           SKY/WX    TMP DP  RH WIND       PRES   REMARKS
Newark/Liberty CLOUDY    58  40  51 NW16G25   30.01F
Teterboro      CLOUDY    57  40  52 NW15G23   30.00F
Caldwell       CLOUDY    55  41  59 NW8       30.03F
Somerville     CLOUDY    56  41  57 NW10G21   30.03F
Linden         FAIR      57  40  52 NW15      30.02F
Perth Amboy      N/A     55 N/A N/A NW16G22     N/A
Sussex         PTSUNNY   54  40  59 VRB7      30.05F
Andover          N/A     53  39  59 N10       30.05S
Trenton        CLOUDY    55  40  56 N16G24    30.04S
Millville      CLOUDY    60  47  61 NW13G22   30.03R
Atlantic City  CLOUDY    57  49  74 N13       30.03R
Wrightstown    PTSUNNY   55  43  62 N14G21    30.03S
Toms River       N/A     57  46  66 NW18      30.03S
Belmar         PTSUNNY   57  42  57 NW18      30.01F
$$

PAZ047>061-062-071-161800-
EASTERN PENNSYLVANIA

CITY           SKY/WX    TMP DP  RH WIND       PRES   REMARKS
Philadelphia   CLOUDY    57  41  55 NW15      30.06S
Allentown      CLOUDY    54  39  57 NW14      30.08R
Scranton       CLOUDY    50  38  63 N18G26    30.10F
$$

CTZ002-004>006-009-010-012-RIZ004-006-007-MAZ004-011-015-161800-
SOUTHERN NEW ENGLAND
 IN CT

CITY           SKY/WX    TMP DP  RH WIND       PRES   REMARKS
Bradley INTL   CLOUDY    54  41  61 NW9       30.00S
Hartford       CLOUDY    54  41  61 NW12G18   30.00R
Danbury        CLOUDY    54  41  61 NW13G21   30.03R
Wtrbury/Oxford CLOUDY    50  39  66 N14       30.00F
Norwalk Harbor   N/A     55 N/A N/A NW17        N/A
Bridgeport     CLOUDY    56  41  57 NW17G24   30.00R
Meriden        CLOUDY    52  39  61 NW13      30.00S
New Haven      CLOUDY    55  40  56 NW9G20    29.99S
Chester        FAIR      55  41  58 N9G17     29.98R
Groton         CLOUDY    56  42  59 NW12      29.97R
Wilimantic     CLOUDY    56  42  59 N14       29.98S

 IN RI

CITY           SKY/WX    TMP DP  RH WIND       PRES   REMARKS
Providence     CLOUDY    59  48  67 NW13      29.94R
Block Island   PTSUNNY   57  47  69 NW7       29.94S
Westerly       PTSUNNY   58  44  60 VRB6      29.96R
 IN MA

CITY           SKY/WX    TMP DP  RH WIND       PRES   REMARKS
Boston         CLOUDY    57  41  55 NW14      29.94R
Worcester      CLOUDY    51  37  58 NW13      29.96S
Westfield      CLOUDY    54  40  59 NW9       30.00R
Provincetown   CLOUDY    57  47  69 NW20G28   29.93R
Nantucket      CLOUDY    63  53  70 N12       29.89F
$$

ANZ330-335-338-340-345-350-353-355-161800-
COASTAL MARINE OBSERVATIONS


STATION/POSITION TIME  SKY/WX   TEMP    WIND        PRES    VSBY  WAVE
                                AIR SEA DIR/SP/G                  HT/PER
                 (UTC)          (F)     (DEG/KT/KT) (MB)    (MI)  (FT/S)
NY HARB ENTRANCE 1550            57 67  310/ 17/ 25 1015.4          4/ 4
20 S FIRE ISLAND 1550            59 65  320/ 16/ 19 1015.1          5/ 7
GREAT SOUTH BAY  1630            58 66  340/ 17/ 19   N/A
15 E BARNEGAT LI 1630               68                N/A           5/ 5
HUDSON CANYON    1550            62 66  340/ 12/ 17 1013.8          5/ 7
KINGS POINT      1636            56 68   10/ 14/ 19 1017.1
EXECUTION ROCKS  1630            58     310/ 14/ 21   N/A
WESTERN LI SOUND 1549            58     310/ 14/ 19   N/A           1/ 2
CENTRAL LI SOUND NOT AVBL
EASTERN LI SOUND NOT AVBL
ROBBINS REEF     1642            56     310/ 16/ 19 1016.9
$$


>>>>>>>>>>>>>>>>>>>>>>>>>>>> KEY <<<<<<<<<<<<<<<<<<<<<<<<<<<
>                                                          <
>     SKY/WX - Sky Condition/Present Weather               <
>     TMP    - Temperature in Fahrenheit                   <
>     DP     - Dew Point in Fahrenheit                     <
>     RH     - Relative Humidity in Percent                <
>     WIND   - Direction (from) and Speed in MPH           <
>     PRES   - Mean Sea Level Pressure (inches of Hg)      <
>     WCI    - Wind Chill Index                            <
>     VSB    - VISIBILITY IN MILES                         <
>     HX     - HEAT INDEX                                  <
>     TC     - TEMPERATURE IN CELSIUS                      <
>     VRB    - VARIABLE WIND DIRECTION                     <
>                                                          <
>>>>>>>>>>>>>>>>>>>>>>>>>>>> KEY <<<<<<<<<<<<<<<<<<<<<<<<<<<




USA.gov is the U.S. government's official web portal to all federal, state and local government web resources and services.